Location: *
(40.7873°S, 98.7174°E)
Time: 10:13:49
(UTC+00:00)

Cosmos 1933 - Pass Details

Date: 24 May 2022
Orbit: 543 x 561 km, 82.5° (Epoch: 04 July)

Event Time Altitude Azimuth Distance (km) Brightness Sun altitude
Rises 11:46:15 0° 190° (S) 2,753 6.9 -17.9°
Reaches altitude 10° 11:48:26 10° 192° (SSW) 1,852 6.0 -18.3°
Maximum altitude 11:52:30 74° 276° (W) 585 3.5 -19.0°
Drops below altitude 10° 11:56:31 10° 0° (N) 1,833 6.1 -19.8°
Sets 11:58:41 0° 2° (N) 2,721 7.0 -20.2°
